Location: Pedholt
(56.0260°N, 10.2097°E)
Time: 19:50:13
(UTC+00:00)

Tiros 1 - Pass Details

Date: 08 August 2021
Orbit: 630 x 663 km, 48.4° (Epoch: 19 September)

Event Time Altitude Azimuth Distance (km) Brightness Sun altitude
Rises 15:59:39 0° 233° (SW) 2,989 11.5 25.0°
Reaches altitude 10° 16:02:15 10° 222° (SW) 2,076 10.6 24.7°
Maximum altitude 16:06:18 28° 164° (SSE) 1,245 8.7 24.1°
Drops below altitude 10° 16:10:20 10° 107° (ESE) 2,067 9.3 23.5°
Sets 16:12:55 0° 95° (E) 2,974 10.0 23.2°
